Preview of NWS' New Version of Forecast
This preview is not operational and should not be used for support decisions.

Regional Weather Roundup (RWR)

Issued by National Weather Service (NWS)

                            
000
ASUS46 KSEW 171210
RWRWA 

WASHINGTON REGIONAL WEATHER ROUNDUP
NATIONAL WEATHER SERVICE SEATTLE WA
500 AM PDT TUE SEP 17 2019

NOTE:"FAIR" INDICATES FEW OR NO CLOUDS BELOW 12,000 FEET WITH NO 
SIGNIFICANT WEATHER AND/OR OBSTRUCTIONS TO VISIBILITY.

WAZ507-509-555>559-171300-
SEATTLE, TACOMA, EVERETT, AND VICINITY
  
CITY           SKY/WX    TMP DP  RH WIND       PRES   REMARKS
EVERETT        CLOUDY    56  49  77 VRB7G18   29.78F                  
6HR MIN TEMP:  55; 6HR MAX TEMP:  56;                                

BOEING FIELD   CLOUDY    57  50  77 SE10      29.78F                  
6HR MIN TEMP:  56; 6HR MAX TEMP:  58;                                

RENTON         CLOUDY    57  51  80 S6        29.78F                  
6HR MIN TEMP:  56; 6HR MAX TEMP:  57;                                

SEATAC AIRPORT CLOUDY    57  48  72 SE12      29.78F                  
6HR MIN TEMP:  56; 6HR MAX TEMP:  58;                                

JBLM-MCCHORD   CLOUDY    58  53  81 SE9       29.79F                  
6HR MIN TEMP:  54; 6HR MAX TEMP:  58;                                

PUYALLUP       CLOUDY    61  48  63 S7        29.79F                  
BREMERTON      CLOUDY    55  51  86 SW5       29.78F                  
6HR MIN TEMP:  55; 6HR MAX TEMP:  56; 6HR PCP: TRACE;                

JBLM-FT LEWIS  CLOUDY    57  55  94 SE6       29.78F                  
6HR MIN TEMP:  54; 6HR MAX TEMP:  58;                                

TACOMA NARROWS CLOUDY    56  48  74 S6        29.79F                  
6HR MIN TEMP:  55; 6HR MAX TEMP:  57; 6HR PCP: TRACE;                

$$
 
WAZ001-503-506-510-514-515-171300-
NORTH INTERIOR
  
CITY           SKY/WX    TMP DP  RH WIND       PRES   REMARKS
BELLINGHAM     CLOUDY    60  48  64 SE17G23   29.72F                  
6HR MIN TEMP:  58; 6HR MAX TEMP:  61;                                

FRIDAY HARBOR  LGT RAIN  57  50  77 SE16G23   29.71F                  
6HR MIN TEMP:  53; 6HR MAX TEMP:  57; 6HR PCP: TRACE;                

EASTSOUND      CLOUDY    59  52  77 S16       29.69F                  
PORT ANGELES   MOCLDY    51  51 100 CALM      29.68F                  
6HR MIN TEMP:  49; 6HR MAX TEMP:  52;                                

EDIZ HOOK      CLOUDY    51  51  97 W3        29.67F                  
6HR MIN TEMP:  50; 6HR MAX TEMP:  52;                                

PORT TOWNSEND  CLOUDY    57  54  88 SE13G22   29.72F                  
NAS WHIDBEY    CLOUDY    62  49  62 SE22G32   29.76F                  
6HR MIN TEMP:  60; 6HR MAX TEMP:  62;                                

ARLINGTON      CLOUDY    59  49  69 SE15      29.78F                  
6HR MIN TEMP:  56; 6HR MAX TEMP:  59;                                

BURLINGTON     CLOUDY    61  50  67 SE13      29.75F                  
$$
 
WAZ020-022-039-040-504-511-512-171300-
SOUTHWEST INTERIOR
  
CITY           SKY/WX    TMP DP  RH WIND       PRES   REMARKS
SHELTON        CLOUDY    58  51  78 SE7       29.75F                  
6HR MIN TEMP:  53; 6HR MAX TEMP:  58;                                

OLYMPIA        CLOUDY    57  51  80 S9        29.78F                  
6HR MIN TEMP:  54; 6HR MAX TEMP:  57; 6HR PCP: TRACE;                

CHEHALIS       CLOUDY    57  54  88 S8        29.79F                  
KELSO          CLOUDY    59  53  80 SE14G22   29.83F                  
6HR MIN TEMP:  57; 6HR MAX TEMP:  59; 6HR PCP:  0.01;                

VANCOUVER      CLOUDY    60  52  74 SE7       29.86F                  
6HR MIN TEMP:  57; 6HR MAX TEMP:  60;                                

SCAPPOOSE, OR  LGT RAIN  58  53  84 S7        29.84F                  
6HR MIN TEMP:  51; 6HR MAX TEMP:  58; 6HR PCP: TRACE;                

PORTLAND, OR   CLOUDY    60  52  74 SE8       29.86F                  
6HR MIN TEMP:  56; 6HR MAX TEMP:  60;                                

$$
 
WAZ021-516-517-171300-
WASHINGTON COAST
  
CITY           SKY/WX    TMP DP  RH WIND       PRES   REMARKS
FORKS          LGT RAIN  57  55  93 SE13G26   29.61F                  
6HR MIN TEMP:  56; 6HR MAX TEMP:  57; 6HR PCP:  0.20;                

HOQUIAM        CLOUDY    59  56  89 SE16      29.72F                  
6HR MIN TEMP:  57; 6HR MAX TEMP:  59; 6HR PCP:  0.02;                

ASTORIA, OR    LGT RAIN  58  55  90 SE3       29.73F                  
6HR MIN TEMP:  57; 6HR MAX TEMP:  59; 6HR PCP:  0.04;                

$$
 
WAZ019-023-024-040-567>569-171300-
CASCADE MOUNTAINS AND COLUMBIA GORGE
  
CITY           SKY/WX    TMP DP  RH WIND       PRES   REMARKS
STAMPEDE PASS  NOT AVBL                                               
TROUTDALE, OR  LGT RAIN  57  51  80 SE7       29.87F                  
6HR MIN TEMP:  53; 6HR MAX TEMP:  57; 6HR PCP: TRACE;                

HOOD RIVER, OR CLOUDY    52  48  87 CALM      29.90F                  
THE DALLES, OR CLOUDY    52  47  83 SE7       29.90F                  
6HR MIN TEMP:  50; 6HR MAX TEMP:  57;                                

$$

WAZ026-027-041>044-520-521-171300-
EAST SLOPES
  
CITY           SKY/WX    TMP DP  RH WIND       PRES   REMARKS
OMAK           CLOUDY    53  47  79 S6        29.83S                  
6HR MIN TEMP:  53; 6HR MAX TEMP:  59;                                

WENATCHEE      CLOUDY    48  43  82 E6        29.84S                  
6HR MIN TEMP:  48; 6HR MAX TEMP:  57;                                

ELLENSBURG     MOCLDY    45  40  82 E3        29.87S                  
6HR MIN TEMP:  44; 6HR MAX TEMP:  50;                                

YAKIMA         MOCLDY    44  39  82 CALM      29.89S                  
6HR MIN TEMP:  41; 6HR MAX TEMP:  51;                                

SUNNYSIDE ARPT PTSUNNY   46  44  95 CALM      29.89S                  
6HR MIN TEMP:  43; 6HR MAX TEMP:  49;                                

YAKIMA TC      PTSUNNY   47  42  84 NE5       29.86F                  
6HR MIN TEMP:  43; 6HR MAX TEMP:  52;                                

$$

WAZ028-034-035-171300-
COLUMBIA BASIN
  
CITY           SKY/WX    TMP DP  RH WIND       PRES   REMARKS
EPHRATA        CLOUDY    50  47  89 NE6       29.85S                  
6HR MIN TEMP:  49; 6HR MAX TEMP:  53;                                

MOSES LAKE     MOCLDY    47  44  90 SE6       29.86S                  
6HR MIN TEMP:  47; 6HR MAX TEMP:  55;                                

PASCO          PTCLDY    55  47  74 SW8       29.90S                  
6HR MIN TEMP:  54; 6HR MAX TEMP:  60;                                

RICHLAND ARPT  MOSUNNY   54  47  78 SW3       29.89                   
6HR MIN TEMP:  54; 6HR MAX TEMP:  57;                                

HERMISTON, OR  MOCLDY    53  43  68 S5        29.92R                  
6HR MIN TEMP:  53; 6HR MAX TEMP:  58;                                

$$

WAZ036>038-171300-
NORTHEAST WASHINGTON
  
CITY           SKY/WX    TMP DP  RH WIND       PRES   REMARKS
SPOKANE GEIGER PTCLDY    47  44  90 SE7       29.90S                  
6HR MIN TEMP:  47; 6HR MAX TEMP:  52;                                

SPOKANE FELTS  CLOUDY    52  45  77 S6        29.91R                  
6HR MIN TEMP:  52; 6HR MAX TEMP:  54;                                

FAIRCHILD AFB  PTCLDY    45  45 100 SE3       29.89S                  
6HR MIN TEMP:  45; 6HR MAX TEMP:  50;                                

COEURDALENE,ID CLOUDY    52  47  83 CALM      29.91S                  
6HR MIN TEMP:  50; 6HR MAX TEMP:  52;                                

DEER PARK      CLOUDY    51  47  86 S3        29.90F                  
6HR MIN TEMP:  50; 6HR MAX TEMP:  52;                                

$$

WAZ029>033-171300-
SOUTHEAST WASHINGTON
  
CITY           SKY/WX    TMP DP  RH WIND       PRES   REMARKS
PULLMAN        MOCLDY    46  44  93 CALM      29.93S                  
6HR MIN TEMP:  45; 6HR MAX TEMP:  50;                                

LEWISTON, ID   CLOUDY    54  49  83 CALM      29.91S                  
6HR MIN TEMP:  54; 6HR MAX TEMP:  56;                                

WALLA WALLA    CLOUDY    56  45  66 S9        29.93S                  
6HR MIN TEMP:  54; 6HR MAX TEMP:  56;                                

PENDLETON, OR  MOCLDY    50  42  74 SW5       29.93S                  
6HR MIN TEMP:  49; 6HR MAX TEMP:  56;                                

$$